Yankton, SD

2:59 AM CST on December 06, 2019 (GMT -0600)
Gurney Municipal

Weather History for KYKN - October, 2019

Change the Weather History Date:

Wednesday, October 9, 2019

  Actual Average Record
Temperature  
Mean Temperature 64 °F -  
Max Temperature 75 °F 64 °F 87 °F (1954)
Min Temperature 51 °F 39 °F 20 °F (1964)
Degree Days  
Heating Degree Days 2    
Growing Degree Days 14 (Base 50)    
Moisture  
Dew Point 50 °F    
Average Humidity 72    
Maximum Humidity 89    
Minimum Humidity 46    
Precipitation  
Precipitation 0.00 in - - ()
Sea Level Pressure  
Sea Level Pressure 29.80 in    
Wind  
Wind Speed 11 mph (SSE)    
Max Wind Speed 20 mph    
Max Gust Speed 29 mph    
Visibility 10 miles    
Events      
Averages and records for this station are not official NWS values.
T = Trace of Precipitation, MM = Missing Value Source: NWS Daily Summary

Daily Weather History Graph

Daily Weather History Graph

Search for Another Location

Airport or City:

Astronomy

Oct. 09, 2019 Rise Set
Actual Time 7:35 AM CDT 6:57 PM CDT
Civil Twilight 7:07 AM CDT 7:25 PM CDT
Nautical Twilight 6:34 AM CDT 7:58 PM CDT
Astronomical Twilight 6:01 AM CDT 8:31 PM CDT
Moon 5:37 PM CDT (10/9) 3:15 AM CDT (10/9)
Length of Visible Light 12h 18m
Length of Day
11h 21m
Waxing Gibbous, 85% of the Moon is Illuminated
Oct 9
Waxing Gibbous
Oct 13
Full
Oct 21
Last Quarter
Oct 27
New
Nov 4
First Quarter

Hourly Weather History & Observations

Time (CDT) Temp. Dew Point Humidity Pressure Visibility Wind Dir Wind Speed Gust Speed Precip Events Conditions
12:56 AM 55.9 °F 46.9 °F 72% 29.81 in 10.0 mi ESE 6.9 mph - N/A   Clear
1:56 AM 55.0 °F 46.9 °F 74% 29.80 in 10.0 mi Variable 4.6 mph - N/A   Clear
2:56 AM 55.0 °F 48.0 °F 77% 29.78 in 10.0 mi SSE 11.5 mph - N/A   Clear
3:56 AM 55.9 °F 48.0 °F 75% 29.76 in 10.0 mi SSE 15.0 mph - N/A   Clear
4:56 AM 55.0 °F 48.0 °F 77% 29.77 in 10.0 mi SSE 12.7 mph - N/A   Clear
5:56 AM 55.0 °F 48.0 °F 77% 29.76 in 10.0 mi SSE 15.0 mph - N/A   Clear
6:56 AM 54.0 °F 48.0 °F 80% 29.78 in 10.0 mi SSE 6.9 mph - N/A   Clear
7:56 AM 53.1 °F 48.0 °F 83% 29.78 in 10.0 mi SSE 9.2 mph - N/A   Clear
8:56 AM 55.0 °F 48.0 °F 77% 29.81 in 10.0 mi SSE 10.4 mph - N/A   Clear
9:56 AM 59.0 °F 48.9 °F 69% 29.81 in 10.0 mi South 12.7 mph - N/A   Clear
10:56 AM 64.0 °F 48.9 °F 58% 29.79 in 10.0 mi South 18.4 mph 28.8 mph N/A   Clear
11:56 AM 69.1 °F 50.0 °F 51% 29.79 in 10.0 mi SSW 15.0 mph - N/A   Scattered Clouds
12:56 PM 72.0 °F 53.1 °F 51% 29.78 in 10.0 mi South 10.4 mph - N/A   Partly Cloudy
1:56 PM 75.0 °F 53.1 °F 46% 29.74 in 10.0 mi South 18.4 mph 24.2 mph N/A   Scattered Clouds
2:56 PM 73.0 °F 55.0 °F 53% 29.73 in 10.0 mi ESE 13.8 mph - N/A   Scattered Clouds
3:56 PM 70.0 °F 55.0 °F 59% 29.74 in 10.0 mi SSE 16.1 mph 28.8 mph N/A   Scattered Clouds
4:56 PM 70.0 °F 54.0 °F 57% 29.74 in 10.0 mi SE 18.4 mph 24.2 mph N/A   Overcast
5:56 PM 68.0 °F 54.0 °F 61% 29.76 in 10.0 mi SE 15.0 mph - N/A   Overcast
6:56 PM 64.0 °F 55.0 °F 73% 29.80 in 10.0 mi SSE 19.6 mph - N/A   Overcast
7:45 PM 62.6 °F 55.4 °F 77% 29.79 in 10.0 mi South 15.0 mph 18.4 mph N/A   Overcast
7:56 PM 61.0 °F 55.0 °F 81% 29.83 in 10.0 mi South 11.5 mph - N/A   Overcast
8:20 PM 55.4 °F 51.8 °F 88% 29.81 in 10.0 mi NW 12.7 mph 18.4 mph N/A   Overcast
8:56 PM 54.0 °F 48.9 °F 83% 29.86 in 10.0 mi NW 11.5 mph - N/A   Overcast
9:20 PM 53.6 °F 48.2 °F 82% 29.83 in 10.0 mi NNW 10.4 mph - N/A   Overcast
9:56 PM 53.1 °F 46.9 °F 80% 29.88 in 10.0 mi NW 11.5 mph - N/A   Overcast
10:56 PM 52.0 °F 46.9 °F 83% 29.90 in 10.0 mi NW 9.2 mph - N/A   Overcast
11:56 PM 51.1 °F 48.0 °F 89% 29.92 in 10.0 mi WNW 10.4 mph - N/A   Overcast